User: anonymous   Login
Location: Bothwell
(42.3833°S, 147.0000°E)
Time: 00:10:01
(UTC+10:00)
Language:

UWE-3 - Orbit

View from above orbital plane
View from above orbital plane
View from above satellite
View from above satellite

Ground track
Ground track

The orbit data is extracted from the following two-line orbital elements,

1 39446U 13066AG  23270.82551101  .00007117  00000-0  85287-3 0  9998
2 39446  97.7444 222.4190 0064753   5.0883 355.0974 14.82866568530221
Epoch (UTC): 27 September 2023 19:48:44
Eccentricity: 0.0064753
inclination: 97.7444°
perigee height: 575 km
apogee height: 665 km
right ascension of ascending node: 222.4190°
argument of perigee: 5.0883°
revolutions per day: 14.82866568
mean anomaly at epoch: 355.0974°
orbit number at epoch: 53022

The dashed part of the orbit path shows where the satellite is in the earth's shadow,  

DLR